星链-34287 (STARLINK-34287)

导读 | 星芒AI

STARLINK-34287 是 SpaceX Starlink 卫星互联网项目中的一颗低轨卫星,属于第三代星链卫星(v1.5)。该卫星于2023年发射,运行在约550公里高度的近地轨道,旨在为全球提供高速、低延迟的宽带互联网服务。它采用先进的推进系统和激光通信技术,提升网络性能与卫星间通信效率。作为 Starlink 群体的一部分,该卫星支持偏远地区的网络接入,并增强整体星座的冗余与覆盖能力。

基本信息
目录编号:
64670
目录名称:
STARLINK-34287
国际标识:
2025-139G
轨道中心:
EARTH
卫星名称:
星链-34287
卫星全名:
星链-34287 (STARLINK-34287)
卫星状态:
在轨 (已飞行134 天)
发射日期:
2025-06-28 UTC
国别 :
美国 (US)
星等 :
--
轨道信息
数据来源 国际轨道数据
星历时间: 2025-11-08T19:08:55+0800
1天前
查看轨道信息
半长轴: 6852.928km
偏心率: 0.0001544
轨道倾角: 53.159°
近地点辐角 73.136°
升交点赤经 330.146°
平近点角 286.981°
近地点: 473.734km
远地点: 475.852km
周期: 94.097分钟
每日圈数: 15.303422
详细信息
固有亮度:
5
最大亮度:
2.5
卫星平台:
Starlink V1.0
覆盖范围:
全球
运营商:
太空探索技术公司
运营商所在国:
美国
制造商(研发单位):
太空探索技术公司
制造商所在国:
美国
使用方式:
暂无
卫星简介
Starlink 计划是 SpaceX 推出的全球卫星互联网项目,通过发射低轨道卫星,为全球尤其是偏远地区提供高速、低延迟的互联网服务。自 2019 年起,Starlink 已部署数千颗卫星,旨在缩小全球数字鸿沟,推动互联网普及。该项目还为军事、航空等行业提供通信支持,带来广泛经济效益。
2D轨道图
3D轨道图
轨道高度分析图
轨道倾角分析图
轨道综合分析图
查看轨道综合分析图